Terug naar catalogus

COSMOS 2251 DEB

ActiefLEO
NORAD 34784·DEBRIS·🇷🇺 Russia

Gelanceerd Jun 16, 1993 vanaf Plesetsk Cosmodrome

Loading…

Volgende Passages (komende 24 uur)

TLE

VersSource: Space-Track

Epoch: Sep 14, 2026, 03:32 UTC

1 34784U 93036AAM 26257.14784527  .00001051  00000-0  21269-3 0  9997
2 34784  74.0065 156.6671 0051166 256.3821 103.1644 14.61871309925586

Volg COSMOS 2251 DEB in realtime met AllMySat

Download on the App Store